Location: Chuathbaluk
(61.5726°N, 159.2454°W)
Time: 14:25:00
(UTC+00:00)

NOAA 15 - Pass Details

Date: 17 January 2021
Orbit: 798 x 812 km, 98.7° (Epoch: 01 March)

Event Time Altitude Azimuth Distance (km) Brightness Sun altitude
Rises 07:25:24 0° 234° (SW) 3,308 8.1 -36.5°
Reaches altitude 10° 07:30:02 10° 272° (W) 2,388 7.7 -37.0°
Maximum altitude 07:31:12 11° 285° (WNW) 2,343 7.7 -37.1°
Drops below altitude 10° 07:32:22 10° 298° (WNW) 2,393 7.8 -37.2°
Sets 07:37:04 0° 336° (NNW) 3,335 8.4 -37.7°
